Temperature
12 12 12 12 12 12 12 12 12 12 12 12 12 12 12 12 12 12 12 13 13 13 12 12 12 12 12 12 12 12 12 11 11 11 11 10 10 10 10 10 9 9 9
11 11 11 11 11 11 11 11 11 12 12 12 12 12 12 12 12 12 12 12 12 12 12 12 12 12 12 11 11 11 11 11 11 11 10 10 10 10 9 9 9 9 8
10 10 10 11 11 11 11 11 11 11 11 11 11 11 11 11 12 12 12 12 12 12 12 12 12 12 11 11 11 11 11 11 11 11 10 10 10 10 9 9 9 8 8
10 10 10 10 10 10 10 10 10 10 11 11 11 11 11 11 11 11 11 11 11 11 12 12 12 12 11 11 11 11 11 11 11 11 10 10 10 9 9 9 9 8 8
9 9 9 9 10 10 10 10 10 10 10 10 10 10 10 10 11 11 11 11 11 11 11 11 11 11 11 11 11 11 11 11 10 10 10 10 10 9 9 8 8 8 8
8 9 9 9 9 9 9 9 9 9 9 9 9 9 10 10 10 10 10 11 11 11 11 11 11 11 11 11 11 11 10 10 10 10 10 10 9 9 9 8 8 8 8
8 8 8 8 9 9 9 9 9 9 9 9 8 8 9 9 10 10 10 10 10 10 10 10 11 10 11 11 10 10 10 10 10 10 10 10 9 9 9 8 8 8 7
8 8 8 8 8 8 8 8 8 8 8 8 8 7 7 8 9 9 9 9 10 10 10 10 10 10 10 10 10 10 10 10 10 10 10 9 9 9 8 8 8 8 7
7 7 7 8 8 8 8 8 8 8 7 8 8 7 7 7 8 8 9 9 9 9 10 10 10 10 10 10 10 10 10 10 10 10 9 9 9 9 8 8 8 7 7
7 7 7 7 7 8 8 8 8 8 8 7 7 7 7 7 7 7 8 8 9 9 9 9 9 9 9 9 9 9 9 9 9 9 9 9 9 9 8 8 7 7 7
7 7 7 7 7 7 7 7 7 7 7 7 7 7 7 7 7 7 7 8 8 9 9 9 9 9 9 9 9 9 9 9 9 9 9 9 9 8 8 8 7 7 7
6 7 7 7 7 7 7 7 7 7 7 7 7 7 7 7 7 7 7 7 7 8 8 9 9 9 9 9 9 9 9 8 8 8 9 8 8 8 8 7 7 7 6
6 6 6 6 6 6 7 7 7 6 7 7 7 6 6 7 7 7 7 7 7 7 7 8 8 8 8 8 8 8 8 8 8 8 8 8 8 8 7 7 7 6 6
6 6 6 6 6 6 6 6 6 6 6 6 6 6 6 6 7 7 7 7 6 6 7 7 8 8 8 8 8 8 8 8 8 8 8 7 7 7 7 7 6 6 6
6 6 6 6 6 6 6 6 6 6 6 6 6 6 6 6 6 6 6 6 6 6 6 7 7 7 7 7 7 7 7 7 7 7 7 7 7 7 7 6 6 6 6
6 6 6 6 5 6 5 5 5 5 5 5 5 6 6 6 6 6 6 6 6 6 6 6 6 7 7 7 7 7 7 7 7 7 7 7 6 6 6 6 6 6 5
5 5 5 5 5 5 5 5 5 5 5 5 5 5 5 5 5 6 6 6 6 6 6 6 6 6 6 6 7 7 7 7 7 7 7 6 6 6 6 6 5 5 5
5 5 5 5 5 5 5 5 5 5 5 5 5 5 5 5 5 5 5 5 5 5 6 5 6 6 6 6 6 6 6 6 6 6 6 6 6 6 5 5 5 5 5
5 5 5 5 5 4 5 5 5 5 5 5 5 5 5 5 5 5 5 5 5 5 5 5 5 5 5 5 5 5 6 6 6 6 6 6 6 5 5 5 5 4 4
5 4 4 4 4 4 4 4 4 4 4 4 4 4 4 4 4 4 4 5 5 5 5 5 5 5 5 5 5 5 5 5 5 5 5 5 5 5 5 5 4 4 4
4 4 4 4 4 4 4 4 4 4 4 4 4 4 4 4 4 4 4 4 4 4 4 4 4 4 4 4 4 4 4 4 4 4 4 4 4 4 4 4 4 4 3
4 4 4 4 4 3 3 3 3 3 3 3 3 3 4 4 4 4 4 4 4 4 4 4 4 4 4 4 4 3 3 3 3 4 4 4 4 4 4 4 3 3 3
4 4 4 3 3 3 3 3 3 3 3 3 3 3 3 3 3 3 3 3 3 3 3 3 4 4 4 4 3 3 3 3 3 3 3 3 3 3 3 3 3 3 2
3 3 3 3 3 3 3 3 3 3 3 3 3 3 3 3 3 3 3 3 3 3 3 3 3 3 3 3 3 3 3 3 3 3 3 3 3 3 3 3 2 2 2
3 3 3 2 2 2 2 2 2 2 2 2 2 2 3 3 3 2 2 3 3 3 3 3 3 3 3 3 3 3 2 2 2 2 2 2 2 2 1 2 2 1 1
2 2 2 2 2 2 2 2 2 2 2 2 2 2 2 2 2 2 2 2 2 2 2 3 3 3 2 2 2 2 2 2 2 1 1 2 1 1 0 1 1 1 1
Wind_Speed
3 3 2 2 3 3 3 3 3 3 3 3 3 3 3 4 5 6 7 11 12 13 14 14 14 14 15 15 15 15 14 14 13 12 11 10 9 9 8 7 6 6 6
3 3 3 3 4 4 4 4 4 4 4 4 4 4 4 4 5 6 6 8 11 13 14 15 14 14 15 15 15 15 15 15 14 13 12 11 11 10 9 8 7 7 7
5 4 4 4 5 5 5 4 4 3 3 3 4 4 4 4 5 6 7 6 8 10 12 14 14 15 15 15 15 16 16 16 15 14 14 13 12 11 10 10 9 8 8
6 4 5 5 5 5 4 4 4 4 4 4 3 4 3 4 5 6 6 7 6 7 10 13 14 15 15 15 15 15 16 16 16 15 15 14 14 13 12 11 10 10 9
6 5 5 5 5 5 5 5 4 5 4 4 3 3 3 4 5 5 5 7 8 8 7 10 13 14 15 16 16 16 16 16 17 17 16 16 15 14 13 12 11 11 10
6 5 5 6 5 5 5 5 5 4 5 4 3 3 3 4 4 5 6 6 7 8 8 8 9 10 14 15 16 16 16 16 17 17 17 17 16 15 14 13 12 12 11
7 6 6 5 6 6 7 6 4 5 4 3 1 1 3 3 4 4 4 4 6 7 8 8 8 7 8 13 15 16 16 16 16 17 18 18 17 16 15 14 13 12 11
7 6 6 6 6 6 7 6 5 4 4 4 3 2 1 3 3 4 4 5 6 5 6 8 8 8 8 8 10 14 16 16 16 16 17 17 18 17 16 15 14 13 12
7 6 7 6 6 7 7 7 7 6 5 4 4 3 2 3 3 3 4 4 5 5 5 6 8 8 9 8 9 11 14 16 17 17 16 15 17 17 16 15 14 13 12
6 7 7 6 7 6 7 8 7 6 7 6 4 3 3 3 2 3 3 3 4 5 6 6 6 8 9 9 9 11 13 15 16 16 16 15 15 17 16 15 13 13 12
5 6 6 6 6 6 7 7 7 7 6 6 4 2 2 2 2 3 4 4 3 4 5 6 6 6 8 8 8 10 13 14 16 16 15 15 15 15 14 14 13 12 12
4 5 5 5 5 5 6 7 7 8 7 6 5 3 3 3 3 3 4 5 5 4 5 5 5 5 6 8 9 11 12 14 15 15 14 13 14 15 14 12 13 12 11
4 5 5 4 5 5 5 5 5 6 7 7 6 5 4 4 3 3 3 4 5 4 4 4 4 4 6 6 7 10 12 13 14 14 13 13 13 13 13 12 13 12 11
4 5 5 5 5 5 5 5 4 5 5 6 6 5 4 4 4 4 4 4 5 5 4 5 3 4 4 5 8 9 10 13 13 13 13 12 12 11 11 11 11 11 10
4 4 4 4 5 5 5 5 4 5 5 5 5 5 4 3 4 4 4 4 5 6 7 5 4 3 4 5 7 7 8 11 13 13 13 12 11 11 11 10 9 10 9
4 4 4 4 4 4 4 4 4 4 5 4 4 4 4 3 3 3 3 4 4 6 7 5 5 3 3 4 7 6 8 11 12 13 13 12 11 11 11 10 9 9 9
3 3 4 4 4 4 3 3 4 4 4 4 4 4 4 4 3 3 3 3 4 4 7 7 4 3 4 5 4 5 7 7 8 11 12 11 11 10 10 10 9 7 7
2 3 3 3 4 3 3 3 4 4 4 4 4 4 4 4 4 4 4 4 5 4 5 7 5 4 4 4 4 4 4 5 6 8 9 10 10 9 9 9 8 7 6
2 2 2 3 3 3 3 3 4 4 4 4 4 4 5 4 4 4 4 4 4 4 4 5 6 4 3 2 2 3 3 3 3 5 6 7 8 8 8 8 8 7 6
1 1 1 2 2 2 2 2 3 3 3 3 4 4 4 4 5 4 4 4 3 4 3 4 4 3 3 2 1 2 3 2 2 3 3 4 5 6 7 7 7 6 6
0 1 1 1 1 1 1 2 2 2 3 3 3 3 4 4 5 4 4 3 3 3 3 4 4 3 3 2 2 2 3 3 2 2 2 2 2 2 4 6 6 6 5
0 0 1 1 1 1 2 2 2 2 2 2 2 2 2 3 4 5 6 6 6 5 5 4 4 4 4 3 2 2 2 2 3 1 1 2 2 3 2 3 4 4 4
1 1 1 1 1 1 2 2 2 1 1 1 1 1 2 3 4 2 4 6 7 8 7 6 5 5 5 4 4 3 3 3 3 2 0 1 1 2 1 3 4 3 3
1 1 1 1 1 1 3 3 2 1 0 1 1 2 2 2 2 2 2 3 4 4 4 4 4 5 4 3 4 4 4 2 0 0 1 1 0 0 0 1 4 4 3
2 1 1 1 1 2 3 3 3 0 1 2 2 1 2 2 3 4 2 2 3 3 3 3 3 3 3 4 3 2 2 2 1 1 0 1 0 1 1 1 2 3 2
2 2 2 1 1 2 3 4 4 0 0 2 2 2 3 4 4 5 2 2 3 3 3 3 3 3 2 1 2 3 4 3 2 1 1 1 1 1 1 1 0 1 0
Wind_Direction
241 246 241 223 209 195 199 206 205 203 207 213 212 208 219 218 213 211 215 215 218 222 225 223 219 218 215 213 213 211 209 208 207 207 208 209 211 215 219 226 237 248 259
232 232 235 229 218 207 203 208 212 205 209 211 219 218 221 221 218 216 219 218 220 224 229 229 227 226 224 221 219 216 212 211 212 213 214 214 216 219 224 230 238 248 256
225 226 226 231 226 213 206 210 214 205 212 217 225 222 215 219 218 214 214 214 219 223 229 234 234 234 232 229 226 222 217 215 216 216 217 218 220 222 226 231 237 244 252
227 224 223 231 231 215 203 205 205 202 209 211 223 230 224 222 222 218 215 214 216 223 229 236 240 240 237 235 233 230 225 221 219 218 219 221 222 224 228 232 237 242 248
233 227 229 230 229 217 210 214 208 196 202 213 225 235 230 231 232 224 222 220 219 221 226 235 240 242 243 242 239 236 232 229 226 223 222 222 223 225 228 232 237 241 244
235 235 234 226 223 218 213 211 209 203 196 202 227 249 246 241 235 222 225 223 221 224 228 233 234 241 244 246 246 242 240 237 234 230 227 225 224 226 228 232 235 239 242
238 237 241 227 220 219 213 209 201 200 195 176 174 295 304 264 240 231 225 225 229 228 226 228 227 232 241 245 247 248 247 244 242 237 233 230 227 226 227 230 232 236 241
239 243 232 230 223 220 212 206 192 195 198 177 166 175 288 302 268 246 226 224 232 225 228 230 228 230 232 235 243 248 253 250 250 245 240 235 232 229 228 229 230 234 239
242 238 237 229 229 218 211 204 199 193 197 193 181 183 195 231 284 265 246 238 229 228 230 227 226 228 232 234 240 247 252 256 253 251 246 243 239 231 228 229 230 233 237
251 241 236 229 228 224 214 205 203 197 188 195 203 220 217 205 231 281 284 258 251 241 235 237 230 229 231 232 238 246 251 254 253 253 252 248 248 236 229 227 228 232 236
249 247 235 227 226 225 219 210 201 200 195 197 202 218 233 246 223 241 275 282 279 259 243 235 232 229 231 231 236 245 249 253 253 253 254 250 249 241 236 230 227 231 235
253 245 237 226 227 227 218 213 206 203 203 201 201 207 211 219 222 226 260 272 275 279 270 249 236 231 232 234 243 249 249 251 253 253 252 251 252 244 240 235 229 231 236
258 246 238 224 225 223 218 213 207 209 204 199 203 216 221 231 226 230 245 266 276 284 281 273 243 229 235 234 244 251 249 248 249 250 250 250 248 242 239 238 231 228 236
246 242 235 226 226 221 219 205 207 214 212 207 214 217 224 232 227 225 226 245 275 282 271 268 267 234 233 233 246 251 252 249 247 247 244 242 240 240 236 233 230 225 230
246 233 231 228 227 221 213 200 209 210 207 211 217 219 228 241 240 236 224 219 236 266 271 260 261 254 237 239 251 250 249 253 249 245 240 236 234 234 229 222 226 225 226
237 224 221 223 226 218 207 206 204 203 202 210 211 211 226 239 244 243 233 234 236 246 265 263 255 255 251 259 260 253 251 256 251 246 240 234 231 229 222 216 218 220 217
232 220 218 219 224 222 212 206 205 195 198 213 222 222 236 238 241 246 242 245 249 244 261 275 264 254 250 259 273 266 258 253 254 242 237 235 231 227 218 211 208 209 209
230 216 207 211 220 218 209 203 203 201 200 213 225 224 240 248 246 246 245 247 249 245 250 269 278 269 258 254 260 268 275 263 257 246 239 237 232 226 216 206 198 195 203
219 209 193 200 216 216 211 210 199 199 205 215 225 229 239 239 252 254 250 252 258 259 242 250 270 278 274 269 272 286 285 276 271 260 248 240 229 220 208 198 192 191 201
186 194 195 197 202 212 219 213 202 202 207 222 231 232 238 239 240 250 257 253 256 261 245 249 265 269 266 269 250 275 298 298 291 294 268 248 224 209 201 194 192 190 195
176 182 166 168 194 209 226 206 199 212 216 227 237 238 242 249 254 261 267 266 256 257 254 255 262 268 263 260 251 252 268 297 306 284 272 252 219 214 203 195 192 187 192
56 132 136 150 202 266 276 270 256 225 222 220 239 259 266 272 277 280 277 276 266 257 252 253 258 251 256 252 243 237 246 282 290 294 269 261 183 208 218 202 189 184 195
31 58 72 81 54 346 306 300 313 292 211 226 244 265 291 300 306 304 294 289 282 269 259 252 247 245 243 234 223 236 241 245 257 257 240 266 194 213 218 199 179 185 197
42 45 36 33 21 336 325 325 339 356 9 302 270 246 253 284 281 287 296 302 296 289 277 269 250 250 247 230 219 222 225 230 314 346 140 203 277 326 346 212 187 195 203
19 17 16 21 358 326 324 323 330 63 5 319 303 288 276 271 279 291 294 298 302 305 313 296 278 259 246 236 218 189 183 171 260 272 126 130 84 6 355 274 223 201 187
357 358 353 342 327 311 316 324 326 172 287 302 309 298 289 282 283 291 277 254 273 289 309 330 342 343 324 288 256 215 197 192 205 235 209 136 127 59 359 324 299 243 211
Height
1478 1478 1479 1479 1480 1481 1481 1482 1484 1485 1486 1487 1488 1489 1491 1492 1493 1494 1495 1496 1497 1498 1499 1500 1500 1501 1501 1502 1503 1503 1504 1504 1505 1505 1505 1505 1504 1504 1503 1503 1503 1502 1501
1474 1474 1474 1475 1476 1476 1477 1478 1480 1480 1481 1483 1484 1485 1487 1488 1489 1490 1491 1492 1493 1494 1495 1496 1497 1497 1498 1498 1499 1500 1500 1501 1501 1501 1502 1502 1501 1501 1500 1500 1500 1499 1498
1469 1470 1470 1470 1471 1472 1473 1474 1475 1476 1477 1478 1480 1481 1482 1484 1485 1486 1487 1488 1489 1490 1491 1492 1493 1493 1494 1494 1495 1496 1496 1497 1497 1498 1498 1498 1498 1498 1497 1497 1496 1496 1495
1465 1465 1465 1466 1466 1467 1468 1469 1470 1471 1473 1474 1475 1476 1478 1479 1480 1481 1482 1483 1484 1485 1486 1487 1488 1489 1490 1490 1491 1491 1492 1492 1493 1493 1494 1494 1494 1494 1494 1493 1493 1492 1492
1459 1460 1460 1461 1462 1462 1463 1464 1466 1467 1468 1470 1471 1472 1473 1475 1476 1477 1477 1479 1480 1481 1482 1482 1483 1484 1485 1486 1486 1487 1487 1488 1488 1489 1489 1490 1490 1490 1490 1489 1489 1489 1488
1454 1455 1455 1456 1457 1458 1458 1460 1461 1462 1464 1465 1467 1468 1470 1471 1471 1472 1473 1474 1475 1476 1477 1478 1479 1479 1480 1481 1482 1482 1482 1482 1483 1484 1484 1485 1485 1485 1485 1485 1485 1485 1485
1449 1449 1450 1450 1451 1452 1453 1455 1456 1457 1459 1461 1463 1464 1465 1466 1467 1468 1468 1469 1470 1471 1472 1473 1474 1474 1475 1476 1477 1477 1477 1477 1478 1478 1479 1479 1480 1480 1480 1481 1481 1480 1480
1443 1443 1444 1444 1446 1447 1448 1450 1451 1452 1454 1457 1458 1460 1461 1462 1462 1463 1464 1464 1465 1466 1466 1468 1468 1469 1470 1471 1471 1472 1472 1472 1473 1473 1473 1473 1474 1474 1475 1476 1476 1476 1476
1437 1437 1438 1439 1440 1442 1443 1444 1447 1447 1449 1452 1455 1457 1457 1456 1457 1457 1458 1460 1460 1461 1461 1462 1463 1464 1465 1465 1465 1466 1466 1467 1467 1467 1467 1467 1468 1469 1469 1470 1470 1470 1471
1431 1432 1432 1434 1435 1437 1438 1439 1442 1444 1445 1446 1449 1452 1453 1453 1454 1452 1453 1454 1456 1456 1456 1457 1457 1458 1459 1459 1460 1460 1461 1461 1461 1461 1462 1462 1462 1463 1463 1463 1464 1465 1465
1427 1427 1427 1429 1430 1432 1433 1435 1437 1439 1440 1441 1444 1446 1448 1449 1450 1450 1448 1449 1450 1451 1451 1452 1452 1452 1453 1454 1454 1454 1454 1455 1455 1455 1455 1456 1456 1457 1457 1458 1458 1459 1460
1422 1422 1423 1424 1426 1427 1428 1430 1432 1434 1436 1437 1439 1442 1443 1444 1445 1446 1445 1445 1445 1445 1446 1446 1446 1447 1448 1448 1448 1448 1449 1449 1449 1449 1449 1450 1451 1451 1451 1452 1452 1453 1455
1417 1417 1418 1419 1421 1422 1424 1426 1427 1429 1430 1432 1435 1437 1439 1441 1442 1442 1443 1442 1441 1440 1440 1440 1441 1441 1442 1442 1442 1442 1443 1443 1443 1443 1444 1444 1445 1445 1446 1447 1447 1448 1449
1413 1414 1414 1415 1417 1418 1420 1421 1423 1424 1426 1428 1430 1432 1434 1436 1438 1438 1439 1438 1437 1435 1434 1434 1435 1436 1436 1436 1437 1437 1437 1437 1437 1437 1438 1439 1439 1439 1440 1442 1442 1442 1443
1410 1411 1411 1412 1413 1414 1415 1417 1418 1420 1422 1424 1426 1428 1430 1431 1433 1434 1434 1434 1435 1431 1429 1429 1430 1430 1431 1431 1431 1431 1431 1431 1431 1432 1432 1433 1433 1434 1435 1436 1437 1437 1438
1407 1407 1408 1409 1409 1410 1412 1413 1414 1416 1418 1420 1422 1424 1426 1427 1428 1429 1429 1430 1430 1429 1425 1424 1425 1425 1426 1426 1426 1426 1425 1425 1425 1426 1426 1427 1427 1428 1429 1430 1432 1432 1433
1404 1405 1405 1406 1406 1407 1408 1409 1410 1412 1414 1415 1418 1420 1421 1423 1424 1424 1424 1424 1425 1424 1421 1419 1420 1420 1421 1420 1420 1420 1420 1419 1420 1420 1420 1421 1422 1423 1424 1425 1426 1427 1428
1402 1402 1403 1403 1403 1404 1405 1406 1407 1409 1410 1412 1414 1415 1416 1418 1419 1419 1419 1419 1419 1419 1417 1414 1415 1415 1415 1415 1415 1414 1414 1414 1414 1414 1415 1415 1416 1417 1418 1419 1420 1422 1423
1400 1400 1400 1401 1401 1402 1402 1403 1404 1406 1407 1409 1410 1411 1412 1413 1413 1414 1414 1414 1414 1414 1413 1411 1410 1411 1410 1410 1410 1409 1409 1409 1409 1409 1409 1410 1411 1412 1412 1414 1415 1417 1418
1398 1398 1398 1399 1399 1399 1399 1400 1401 1403 1404 1405 1406 1407 1408 1409 1409 1409 1409 1409 1409 1409 1408 1407 1406 1406 1406 1406 1406 1405 1404 1404 1404 1404 1405 1405 1406 1407 1408 1410 1411 1412 1413
1396 1396 1396 1397 1397 1397 1397 1398 1398 1399 1400 1401 1403 1403 1404 1404 1405 1405 1405 1405 1405 1404 1404 1403 1402 1402 1401 1401 1401 1401 1401 1400 1400 1400 1400 1401 1402 1403 1404 1405 1406 1408 1409
1395 1395 1394 1394 1394 1394 1395 1396 1396 1397 1397 1398 1399 1399 1400 1400 1400 1400 1401 1401 1401 1400 1399 1399 1398 1397 1397 1398 1398 1398 1398 1397 1396 1398 1397 1397 1399 1399 1400 1401 1402 1404 1405
1394 1393 1393 1392 1392 1392 1393 1393 1394 1394 1394 1395 1395 1395 1395 1395 1396 1396 1396 1396 1396 1396 1396 1396 1394 1393 1394 1394 1394 1394 1394 1394 1393 1394 1395 1394 1395 1395 1397 1398 1398 1400 1401
1392 1392 1391 1391 1390 1390 1391 1391 1391 1391 1391 1392 1392 1392 1392 1392 1392 1392 1392 1391 1391 1391 1391 1391 1390 1390 1390 1391 1391 1391 1391 1391 1391 1391 1392 1391 1391 1392 1393 1394 1395 1397 1398
1391 1390 1389 1389 1388 1388 1388 1388 1389 1388 1388 1388 1389 1389 1389 1389 1389 1389 1389 1388 1387 1387 1387 1387 1387 1387 1387 1387 1388 1388 1388 1388 1387 1387 1389 1389 1389 1389 1390 1391 1393 1394 1395
1389 1388 1387 1387 1386 1386 1386 1386 1386 1386 1385 1385 1385 1385 1386 1385 1385 1385 1385 1384 1384 1383 1383 1383 1383 1383 1383 1383 1384 1385 1385 1385 1385 1385 1386 1386 1386 1387 1388 1389 1390 1391 1392